When you browse on this site, cookies collect data to enhance your experience and personalize the content and advertising you see.
Visit our Privacy Policy to learn more. By continuing to use the site, you agree to this use of cookies and data.
  • In Österreich
  • Länderverzeichnis
  • Für 7 Tage
  • Wassertemperatur
  • Satellitenkarten
  • Wetterkarte
  • News
  • Widgets
  • user-avatar
    Anmelden

    Stündliche Wetter Ischgl

    Heute, 17 Juli, Mittwoch

    Zeit Temperatur Niederschläge Wind Luftdruck Luftfeuchtigkeit
    00:00 +4°C° 0 mm 0 m/S 574 mmHg 93%
    01:00 +3°C° 0 mm 0 m/S 574 mmHg 93%
    02:00 +3°C° 0 mm 0 m/S 574 mmHg 93%
    03:00 +3°C° 0 mm 0 m/S 573 mmHg 93%
    04:00 +3°C° 0 mm 0 m/S 573 mmHg 93%
    05:00 +4°C° 0 mm 0 m/S 574 mmHg 86%
    06:00 +6°C° 0 mm 0 m/S 575 mmHg 79%
    07:00 +8°C° 0 mm 0 m/S 576 mmHg 73%
    08:00 +10°C° 0 mm 0 m/S 577 mmHg 62%
    09:00 +12°C° 0 mm 0 m/S 577 mmHg 52%
    10:00 +15°C° 0 mm 1 m/S 578 mmHg 41%
    11:00 +15°C° 0 mm 1 m/S 578 mmHg 39%
    12:00 +16°C° 0 mm 2 m/S 578 mmHg 37%
    13:00 +17°C° 0 mm 2 m/S 578 mmHg 35%
    14:00 +16°C° 0.1 mm 2 m/S 578 mmHg 39%
    15:00 +16°C° 0.1 mm 2 m/S 578 mmHg 43%
    16:00 +16°C° 0.1 mm 3 m/S 578 mmHg 47%
    17:00 +14°C° 0.6 mm 2 m/S 577 mmHg 59%
    18:00 +12°C° 0.6 mm 2 m/S 576 mmHg 71%
    19:00 +10°C° 0.6 mm 2 m/S 575 mmHg 82%
    20:00 +9°C° 0.2 mm 1 m/S 574 mmHg 86%
    21:00 +7°C° 0.2 mm 1 m/S 574 mmHg 90%
    22:00 +6°C° 0.2 mm 1 m/S 573 mmHg 93%
    23:00 +4°C° 0 mm 0 m/S 573 mmHg 93%

    Morgen, 18 Juli, Donnerstag

    Zeit Temperatur Niederschläge Wind Luftdruck Luftfeuchtigkeit
    00:00 +4°C° 0 mm 0 m/S 573 mmHg 93%
    01:00 +4°C° 0 mm 0 m/S 573 mmHg 93%
    02:00 +4°C° 0 mm 0 m/S 572 mmHg 92%
    03:00 +3°C° 0 mm 0 m/S 572 mmHg 91%
    04:00 +3°C° 0 mm 0 m/S 572 mmHg 90%
    05:00 +5°C° 0 mm 0 m/S 573 mmHg 85%
    06:00 +6°C° 0 mm 0 m/S 574 mmHg 80%
    07:00 +8°C° 0 mm 0 m/S 574 mmHg 75%
    08:00 +10°C° 0 mm 1 m/S 575 mmHg 69%
    09:00 +11°C° 0 mm 1 m/S 576 mmHg 63%
    10:00 +12°C° 0 mm 1 m/S 576 mmHg 57%
    11:00 +13°C° 0.3 mm 2 m/S 577 mmHg 57%
    12:00 +13°C° 0.3 mm 2 m/S 577 mmHg 57%
    13:00 +14°C° 0.3 mm 2 m/S 577 mmHg 57%
    14:00 +13°C° 0.8 mm 2 m/S 577 mmHg 62%
    15:00 +13°C° 0.8 mm 2 m/S 576 mmHg 66%
    16:00 +12°C° 0.8 mm 2 m/S 576 mmHg 71%
    17:00 +12°C° 0.6 mm 2 m/S 576 mmHg 75%
    18:00 +10°C° 0.6 mm 2 m/S 576 mmHg 79%
    19:00 +10°C° 0.6 mm 1 m/S 576 mmHg 83%
    20:00 +9°C° 0 mm 1 m/S 575 mmHg 87%
    21:00 +7°C° 0 mm 1 m/S 575 mmHg 90%
    22:00 +5°C° 0 mm 0 m/S 574 mmHg 93%
    23:00 +4°C° 0 mm 0 m/S 574 mmHg 93%

    übermorgen, 19 Juli, Freitag

    Zeit Temperatur Niederschläge Wind Luftdruck Luftfeuchtigkeit
    00:00 +4°C° 0 mm 0 m/S 574 mmHg 93%
    01:00 +4°C° 0 mm 0 m/S 574 mmHg 93%
    02:00 +4°C° 0 mm 0 m/S 574 mmHg 92%
    03:00 +4°C° 0 mm 0 m/S 574 mmHg 92%
    04:00 +3°C° 0 mm 0 m/S 574 mmHg 91%
    05:00 +5°C° 0 mm 0 m/S 575 mmHg 87%
    06:00 +6°C° 0 mm 0 m/S 576 mmHg 83%
    07:00 +8°C° 0 mm 0 m/S 576 mmHg 79%
    08:00 +9°C° 0 mm 0 m/S 577 mmHg 72%
    09:00 +11°C° 0 mm 0 m/S 578 mmHg 65%
    10:00 +13°C° 0 mm 0 m/S 579 mmHg 58%
    11:00 +14°C° 0.1 mm 1 m/S 579 mmHg 55%
    12:00 +15°C° 0.1 mm 1 m/S 579 mmHg 53%
    13:00 +16°C° 0.1 mm 1 m/S 580 mmHg 50%
    14:00 +16°C° 0.4 mm 1 m/S 579 mmHg 55%
    15:00 +15°C° 0.4 mm 1 m/S 579 mmHg 60%
    16:00 +15°C° 0.4 mm 2 m/S 579 mmHg 66%
    17:00 +13°C° 0.9 mm 1 m/S 578 mmHg 73%
    18:00 +12°C° 0.9 mm 1 m/S 578 mmHg 81%
    19:00 +11°C° 0.9 mm 1 m/S 578 mmHg 89%
    20:00 +10°C° 0.2 mm 1 m/S 577 mmHg 91%
    21:00 +8°C° 0.2 mm 0 m/S 577 mmHg 93%
    22:00 +6°C° 0.2 mm 0 m/S 576 mmHg 95%
    23:00 +6°C° 0 mm 0 m/S 576 mmHg 95%

    20 Juli, Samstag

    Zeit Temperatur Niederschläge Wind Luftdruck Luftfeuchtigkeit
    00:00 +7°C° 0 mm 1 m/S 576 mmHg 94%
    01:00 +7°C° 0 mm 1 m/S 576 mmHg 94%
    02:00 +7°C° 0 mm 1 m/S 576 mmHg 94%
    03:00 +7°C° 0 mm 1 m/S 576 mmHg 94%
    04:00 +5°C° 0 mm 2 m/S 575 mmHg 94%
    05:00 +7°C° 0 mm 2 m/S 576 mmHg 91%
    06:00 +8°C° 0 mm 2 m/S 577 mmHg 87%
    07:00 +9°C° 0 mm 2 m/S 578 mmHg 84%
    08:00 +12°C° 0 mm 1 m/S 579 mmHg 75%
    09:00 +14°C° 0 mm 1 m/S 580 mmHg 67%
    10:00 +16°C° 0 mm 1 m/S 581 mmHg 58%
    11:00 +16°C° 0.4 mm 1 m/S 580 mmHg 59%
    12:00 +16°C° 0.4 mm 1 m/S 580 mmHg 60%
    13:00 +16°C° 0.4 mm 2 m/S 580 mmHg 61%
    14:00 +16°C° 1.8 mm 2 m/S 580 mmHg 66%
    15:00 +15°C° 1.8 mm 2 m/S 580 mmHg 71%
    16:00 +14°C° 1.8 mm 2 m/S 579 mmHg 77%
    17:00 +13°C° 1.9 mm 1 m/S 579 mmHg 81%
    18:00 +12°C° 1.9 mm 1 m/S 579 mmHg 86%
    19:00 +11°C° 1.9 mm 1 m/S 579 mmHg 90%
    20:00 +10°C° 0.1 mm 1 m/S 578 mmHg 91%
    21:00 +9°C° 0.1 mm 1 m/S 578 mmHg 91%
    22:00 +7°C° 0.1 mm 1 m/S 578 mmHg 92%
    23:00 +7°C° 0 mm 1 m/S 578 mmHg 91%

    21 Juli, Sonntag

    Zeit Temperatur Niederschläge Wind Luftdruck Luftfeuchtigkeit
    00:00 +6°C° 0 mm 0 m/S 577 mmHg 90%
    01:00 +6°C° 0 mm 0 m/S 577 mmHg 89%
    02:00 +5°C° 0 mm 0 m/S 577 mmHg 88%
    03:00 +5°C° 0 mm 0 m/S 577 mmHg 88%
    04:00 +5°C° 0 mm 0 m/S 577 mmHg 87%
    05:00 +7°C° 0 mm 0 m/S 578 mmHg 82%
    06:00 +9°C° 0 mm 0 m/S 579 mmHg 77%
    07:00 +11°C° 0 mm 0 m/S 580 mmHg 72%
    08:00 +12°C° 0 mm 0 m/S 581 mmHg 66%
    09:00 +14°C° 0 mm 1 m/S 582 mmHg 61%
    10:00 +16°C° 0 mm 1 m/S 583 mmHg 55%
    11:00 +16°C° 0.1 mm 1 m/S 583 mmHg 54%
    12:00 +18°C° 0.1 mm 1 m/S 583 mmHg 53%
    13:00 +18°C° 0.1 mm 1 m/S 583 mmHg 52%
    14:00 +17°C° 0.3 mm 2 m/S 583 mmHg 57%
    15:00 +17°C° 0.3 mm 2 m/S 583 mmHg 61%
    16:00 +16°C° 0.3 mm 2 m/S 583 mmHg 66%
    17:00 +15°C° 0.4 mm 2 m/S 582 mmHg 72%
    18:00 +14°C° 0.4 mm 2 m/S 582 mmHg 79%
    19:00 +13°C° 0.4 mm 2 m/S 582 mmHg 86%
    20:00 +12°C° 0.2 mm 1 m/S 581 mmHg 89%
    21:00 +10°C° 0.2 mm 1 m/S 581 mmHg 92%
    22:00 +8°C° 0.2 mm 0 m/S 580 mmHg 95%
    23:00 +7°C° 0 mm 0 m/S 580 mmHg 95%

    22 Juli, Montag

    Zeit Temperatur Niederschläge Wind Luftdruck Luftfeuchtigkeit
    00:00 +7°C° 0 mm 0 m/S 579 mmHg 94%
    01:00 +6°C° 0 mm 0 m/S 579 mmHg 94%
    02:00 +6°C° 0 mm 0 m/S 579 mmHg 93%
    03:00 +6°C° 0 mm 0 m/S 578 mmHg 92%
    04:00 +6°C° 0 mm 0 m/S 578 mmHg 91%
    05:00 +8°C° 0 mm 0 m/S 579 mmHg 86%
    06:00 +9°C° 0 mm 0 m/S 580 mmHg 81%
    07:00 +11°C° 0 mm 0 m/S 581 mmHg 75%
    08:00 +14°C° 0 mm 1 m/S 582 mmHg 68%
    09:00 +16°C° 0 mm 1 m/S 583 mmHg 60%
    10:00 +18°C° 0 mm 1 m/S 583 mmHg 53%
    11:00 +19°C° 0 mm 1 m/S 583 mmHg 49%
    12:00 +20°C° 0 mm 1 m/S 584 mmHg 45%
    13:00 +20°C° 0 mm 2 m/S 584 mmHg 41%
    14:00 +19°C° 0 mm 2 m/S 584 mmHg 42%
    15:00 +19°C° 0 mm 2 m/S 583 mmHg 43%
    16:00 +19°C° 0 mm 2 m/S 583 mmHg 44%
    17:00 +18°C° 0 mm 2 m/S 583 mmHg 51%
    18:00 +17°C° 0 mm 2 m/S 582 mmHg 58%
    19:00 +16°C° 0 mm 2 m/S 582 mmHg 65%
    20:00 +14°C° 0 mm 1 m/S 581 mmHg 72%
    21:00 +12°C° 0 mm 1 m/S 580 mmHg 79%
    22:00 +9°C° 0 mm 1 m/S 579 mmHg 86%
    23:00 +8°C° 0 mm 0 m/S 578 mmHg 85%
    Mehr zeigen